星链-31727 (STARLINK-31727 )

导读

STARLINK-31727是美国SpaceX公司星链(Starlink)项目的通信卫星,于2024年5月3日发射升空。作为星链低轨互联网星座的组成部分,它运行在近地轨道,主要为全球尤其是偏远地区提供高速宽带互联网服务。星链星座通过大规模组网,弥补传统网络覆盖盲区,推动全球互联 connectivity,不过也引发了天文观测等领域的相关讨论,它的入轨进一步扩充了星链星座的规模与服务能力。

Basic Information
目录编号:
59638
目录名称:
STARLINK-31727
国际标识:
2024-082H
轨道中心:
EARTH
卫星名称:
星链-31727
卫星全名:
星链-31727 (STARLINK-31727 )
卫星状态:
在轨 (已飞行854 天)
发射日期:
2024-05-03 UTC
国别 :
美国 (US)
星等 :
--
Orbit Information
数据来源 国际轨道数据 AOE轨道数据
星历时间 2026-09-04T13:39:23+0800
12小时前
查看轨道信息
2026-09-04T00:00:00+0800
1天前
查看轨道信息
半长轴 6861.229km 6861.176km
偏心率 0.0001256 0.0001054
轨道倾角 43.005° 42.999°
近地点辐角 265.478° 243.877°
升交点赤经 211.870° 215.087°
平近点角 94.593° 223.365°
近地点 482.23km 482.315km
远地点 483.954km 483.763km
周期 94.268分钟 94.267分钟
每日圈数 15.275658 15.275837
Detailed Information
固有亮度:
5
最大亮度:
1.5
卫星平台:
Starlink v2.0 mini
覆盖范围:
全球
运营商:
太空探索技术公司
运营商所在国:
美国
制造商(研发单位):
太空探索技术公司
制造商所在国:
美国
使用方式:
暂无
Satellite Introduction
星链(Starlink)计划是由太空探索技术公司(SpaceX)提出的一个巨型低轨卫星互联网星座项目,计划在2019年至2024年间在太空搭建由约1.2万颗卫星组成的“星链”网络,其中1584颗将部署在地球上空550千米处的近地轨道,并从2020年开始工作。该卫星仍在工作。
2D Orbit Map
3D Orbit Map
Orbit Altitude Analysis Chart
Orbit Inclination Analysis Chart
Orbit Comprehensive Analysis Chart
View Comprehensive Chart
Conjunction Data List
Event ID Objects TCA Miss Dist (km) Collision Risk Probability Collision Risk Index (CRI) Action
CDM_260906-124105-963806-401421
2026-09-06T
12:41:30+0000
0.523 km
远距离
1.44724E-4 高风险 0.78
CDM_260827-181605-690105-963821
2026-08-27T
18:16:08+0000
1.188 km
极远距离
7.054345E-6 低风险 0.52
CDM_260906-110705-963806-401421
2026-09-06T
11:07:20+0000
1.832 km
极远距离
2.787333E-6 低风险 0.44
CDM_260906-141505-963806-401421
2026-09-06T
14:15:39+0000
2.760 km
极远距离
1.181119E-6 低风险 0.36
CDM_260827-195005-690105-963821
2026-08-27T
19:50:17+0000
2.429 km
极远距离
9.896834E-7 极低风险 0.35